Weather History for Hillsdale, MI

Change the Weather History Date:

Monday, January 21, 2013

  Actual Average Record
Temperature  
Mean Temperature 12 °F -  
Max Temperature 18 °F 29 °F 50 °F (1964)
Min Temperature 7 °F 14 °F -20 °F (1984)
Degree Days  
Heating Degree Days 53    
Moisture  
Dew Point 5 °F    
Average Humidity 70    
Maximum Humidity 86    
Minimum Humidity 51    
Precipitation  
Precipitation 0.00 in - - ()
Sea Level Pressure  
Sea Level Pressure 30.00 in    
Wind  
Wind Speed 11 mph (West)    
Max Wind Speed 23 mph    
Max Gust Speed 32 mph    
Visibility 7 miles    
Events Snow    
Averages and records for this station are not official NWS values.
T = Trace of Precipitation, MM = Missing Value Source: NWS Daily Summary

Daily Weather History Graph

Daily Weather History Graph

Search for Another Location

Airport:

Trip Planner

Search our weather history database for the weather conditions in past years. The results will help you decide how hot, cold, wet, or windy it might be!

Date:

Astronomy

Jan. 21, 2013 Rise Set
Actual Time 8:00 AM EST 5:39 PM EST
Civil Twilight 7:29 AM EST 6:10 PM EST
Nautical Twilight 6:55 AM EST 6:44 PM EST
Astronomical Twilight 6:22 AM EST 7:17 PM EST
Moon 1:18 PM EST (1/21) 3:27 AM EST (1/21)
Length of Visible Light 10h 40m
Length of Day
9h 39m
Waxing Gibbous, 75% of the Moon is Illuminated
Jan 21
Waxing Gibbous
Jan 26
Full
Feb 3
Last Quarter
Feb 10
New
Feb 17
First Quarter

Hourly Weather History & Observations

Time (EST) Temp. Windchill Dew Point Humidity Pressure Visibility Wind Dir Wind Speed Gust Speed Precip Events Conditions
12:14 AM 17.4 °F 7.1 °F 6.4 °F 62% 30.09 in 10.0 mi WSW 8.1 mph - N/A   Overcast
12:35 AM 17.2 °F 8.9 °F 6.8 °F 64% 30.08 in 10.0 mi WSW 5.8 mph - N/A   Overcast
1:15 AM 17.1 °F 11.7 °F 7.2 °F 65% 30.06 in 10.0 mi WSW 3.5 mph - N/A   Overcast
1:35 AM 17.2 °F 8.9 °F 7.3 °F 65% 30.05 in 10.0 mi WSW 5.8 mph - N/A   Overcast
2:35 AM 17.8 °F 7.5 °F 9.1 °F 69% 30.05 in 5.0 mi WSW 8.1 mph - N/A Snow Light Snow
2:54 AM 17.8 °F 7.5 °F 9.7 °F 71% 30.05 in 7.0 mi WSW 8.1 mph - N/A Snow Light Snow
3:15 AM 17.8 °F 10.9 °F 10.8 °F 74% 30.04 in 5.0 mi WSW 4.6 mph - N/A Snow Light Snow
3:35 AM 17.8 °F 10.9 °F 12.0 °F 78% 30.03 in 4.0 mi WSW 4.6 mph - N/A Snow Light Snow
3:54 AM 17.8 °F 10.9 °F 12.9 °F 81% 30.02 in 2.5 mi WSW 4.6 mph - N/A Snow Light Snow
4:15 AM 17.2 °F 7.8 °F 13.3 °F 84% 30.01 in 1.8 mi WSW 6.9 mph - N/A Snow Light Snow
4:35 AM 17.2 °F 8.9 °F 13.6 °F 86% 30.00 in 2.0 mi West 5.8 mph - N/A Snow Light Snow
4:54 AM 17.1 °F 6.6 °F 13.1 °F 84% 30.00 in 2.5 mi West 8.1 mph - N/A Snow Light Snow
5:34 AM 16.9 °F 6.4 °F 12.9 °F 84% 29.99 in 2.0 mi West 8.1 mph - N/A Snow Light Snow
5:55 AM 16.9 °F 6.4 °F 12.6 °F 83% 29.98 in 2.5 mi WSW 8.1 mph - N/A Snow Light Snow
6:14 AM 16.5 °F 5.1 °F 12.0 °F 82% 29.98 in 2.5 mi West 9.2 mph - N/A Snow Light Snow
6:35 AM 16.3 °F 4.1 °F 10.4 °F 77% 29.98 in 7.0 mi WSW 10.4 mph 18.4 mph N/A Snow Light Snow
7:14 AM 16.2 °F 1.9 °F 9.3 °F 74% 29.98 in 7.0 mi West 13.8 mph - N/A Snow Light Snow
7:35 AM 16.2 °F 2.5 °F 8.4 °F 72% 29.98 in 10.0 mi West 12.7 mph - N/A   Overcast
7:55 AM 16.2 °F 3.2 °F 7.9 °F 70% 29.98 in 10.0 mi West 11.5 mph - N/A   Overcast
8:14 AM 15.4 °F 3.8 °F 7.3 °F 70% 29.97 in 7.0 mi West 9.2 mph 18.4 mph N/A   Overcast
8:35 AM 15.4 °F 3.0 °F 8.1 °F 73% 29.97 in 5.0 mi West 10.4 mph - N/A Snow Light Snow
8:55 AM 15.3 °F 0.2 °F 8.6 °F 75% 29.97 in 2.0 mi West 15.0 mph 18.4 mph N/A Snow Light Snow
9:14 AM 15.1 °F 5.2 °F 9.7 °F 79% 29.97 in 1.8 mi West 6.9 mph - N/A Snow Light Snow
9:35 AM 14.5 °F 1.1 °F 9.1 °F 79% 29.97 in 1.8 mi WSW 11.5 mph 17.3 mph N/A Snow Light Snow
9:55 AM 15.1 °F -0.6 °F 8.6 °F 76% 29.98 in 2.5 mi WSW 16.1 mph 20.7 mph N/A Snow Light Snow
10:14 AM 15.1 °F -0.1 °F 8.1 °F 74% 29.98 in 3.0 mi WSW 15.0 mph 24.2 mph N/A Snow Light Snow
10:35 AM 15.4 °F -0.1 °F 6.8 °F 69% 29.97 in 7.0 mi West 16.1 mph 25.3 mph N/A Snow Light Snow
10:55 AM 15.3 °F -1.8 °F 6.4 °F 68% 29.97 in 7.0 mi West 19.6 mph 24.2 mph N/A   Overcast
11:14 AM 15.4 °F 0.4 °F 7.3 °F 70% 29.97 in 2.0 mi WSW 15.0 mph 21.9 mph N/A Snow Light Snow
11:35 AM 15.1 °F -0.6 °F 5.5 °F 66% 29.97 in 10.0 mi West 16.1 mph 26.5 mph N/A   Mostly Cloudy
11:54 AM 15.8 °F -0.2 °F 5.4 °F 63% 29.96 in 10.0 mi West 17.3 mph 24.2 mph N/A   Overcast
12:15 PM 16.2 °F 1.3 °F 4.8 °F 61% 29.95 in 10.0 mi West 15.0 mph 25.3 mph N/A   Mostly Cloudy
12:35 PM 16.3 °F -1.2 °F 3.4 °F 57% 29.94 in 10.0 mi West 21.9 mph 28.8 mph N/A   Overcast
12:54 PM 16.0 °F -1.7 °F 3.7 °F 59% 29.94 in 10.0 mi West 21.9 mph 27.6 mph N/A   Mostly Cloudy
1:15 PM 16.9 °F -0.9 °F 1.9 °F 52% 29.93 in 10.0 mi West 23.0 mph 31.1 mph N/A   Scattered Clouds
1:34 PM 17.4 °F -0.2 °F 2.5 °F 52% 29.93 in 10.0 mi West 23.0 mph 29.9 mph N/A   Scattered Clouds
1:55 PM 16.5 °F -1.4 °F 2.8 °F 55% 29.93 in 10.0 mi West 23.0 mph 31.1 mph N/A   Mostly Cloudy
2:15 PM 15.1 °F -2.9 °F 1.8 °F 56% 29.94 in 10.0 mi West 21.9 mph 29.9 mph N/A   Overcast
2:34 PM 15.6 °F -2.2 °F 2.5 °F 56% 29.95 in 10.0 mi West 21.9 mph 31.1 mph N/A   Mostly Cloudy
2:55 PM 16.7 °F 1.5 °F 4.6 °F 59% 29.94 in 10.0 mi WNW 16.1 mph 25.3 mph N/A   Mostly Cloudy
3:15 PM 14.4 °F -3.8 °F 3.6 °F 62% 29.96 in 10.0 mi NW 21.9 mph 27.6 mph N/A   Overcast
3:34 PM 14.0 °F -2.5 °F 0.7 °F 56% 29.96 in 10.0 mi West 17.3 mph 26.5 mph N/A Snow Light Snow
3:55 PM 13.6 °F -4.4 °F -1.7 °F 51% 29.98 in 10.0 mi West 20.7 mph 32.2 mph N/A   Scattered Clouds
4:15 PM 13.1 °F -4.6 °F 0.9 °F 58% 29.98 in 10.0 mi West 19.6 mph 27.6 mph N/A   Mostly Cloudy
4:34 PM 12.0 °F -6.0 °F 5.7 °F 76% 29.99 in 0.5 mi WNW 19.6 mph 26.5 mph N/A Snow Light Snow
4:55 PM 10.6 °F -7.4 °F 4.3 °F 76% 30.00 in 1.2 mi WNW 18.4 mph 27.6 mph N/A Snow Light Snow
5:15 PM 9.9 °F -9.3 °F 0.9 °F 67% 30.01 in 7.0 mi West 20.7 mph - N/A   Overcast
5:34 PM 9.5 °F -9.8 °F -1.5 °F 61% 30.01 in 10.0 mi West 20.7 mph 27.6 mph N/A   Mostly Cloudy
6:15 PM 8.8 °F -8.1 °F -2.7 °F 60% 30.01 in 10.0 mi WNW 15.0 mph - N/A   Clear
6:34 PM 8.1 °F -9.0 °F -1.3 °F 66% 30.02 in 10.0 mi West 15.0 mph 18.4 mph N/A   Clear
6:55 PM 8.1 °F -7.7 °F -0.2 °F 69% 30.02 in 10.0 mi West 12.7 mph 19.6 mph N/A   Scattered Clouds
7:14 PM 8.1 °F -9.0 °F -0.0 °F 70% 30.03 in 10.0 mi West 15.0 mph - N/A   Mostly Cloudy
7:54 PM 8.2 °F -7.5 °F 2.8 °F 79% 30.03 in 2.5 mi West 12.7 mph 17.3 mph N/A Snow Light Snow
8:15 PM 8.4 °F -9.2 °F 1.4 °F 73% 30.04 in 7.0 mi West 16.1 mph 21.9 mph N/A   Overcast
8:35 PM 8.1 °F -10.7 °F 0.9 °F 72% 30.03 in 7.0 mi West 18.4 mph 21.9 mph N/A   Overcast
8:54 PM 7.9 °F -9.3 °F 0.9 °F 73% 30.04 in 5.0 mi West 15.0 mph 21.9 mph N/A   Haze
9:15 PM 8.1 °F -9.0 °F 1.0 °F 73% 30.04 in 5.0 mi WNW 15.0 mph 23.0 mph N/A   Haze
9:35 PM 8.2 °F -4.1 °F 3.0 °F 79% 30.04 in 1.2 mi WNW 8.1 mph - N/A Snow Light Snow
9:54 PM 8.2 °F -8.2 °F 2.5 °F 77% 30.05 in 3.0 mi West 13.8 mph 18.4 mph N/A Snow Light Snow
10:15 PM 8.2 °F -6.0 °F 2.1 °F 76% 30.05 in 7.0 mi West 10.4 mph 16.1 mph N/A Snow Light Snow
10:34 PM 8.1 °F -7.0 °F 2.1 °F 77% 30.05 in 7.0 mi West 11.5 mph 18.4 mph N/A Snow Light Snow
10:55 PM 7.9 °F -6.4 °F 1.9 °F 77% 30.05 in 3.0 mi West 10.4 mph 20.7 mph N/A Snow Light Snow
11:15 PM 8.2 °F -9.4 °F 2.1 °F 76% 30.06 in 3.0 mi West 16.1 mph 19.6 mph N/A Snow Light Snow
11:34 PM 8.2 °F -9.4 °F 1.2 °F 73% 30.06 in 7.0 mi WNW 16.1 mph 21.9 mph N/A Snow Light Snow
11:55 PM 8.1 °F -9.0 °F -0.2 °F 69% 30.06 in 10.0 mi WNW 15.0 mph 19.6 mph N/A   Overcast